Location: Champaign/Urbana Astronomical Society Observatory
(40.0333°N, 88.2833°W)
Time: 23:34:44
(UTC-06:00)

Envisat - Visible Passes

Search period start: 17 November 2018 00:00
Search period end: 27 November 2018 00:00
Orbit: 764 x 766 km, 98.2° (Epoch: 17 November)

Date Brightness Start Highest point End Pass type
(mag) Time Alt. Az. Time Alt. Az. Time Alt. Az.
17 Nov 3.2 18:20:08 30° SE 18:22:13 46° ENE 18:27:04 10° N visible
17 Nov 5.3 20:00:21 18° WSW 20:01:27 20° W 20:05:07 10° NW visible
18 Nov 4.1 17:43:08 15° ESE 17:45:46 22° ENE 17:49:35 10° NNE visible
18 Nov 4.0 19:23:22 38° SW 19:24:28 44° W 19:29:20 10° NNW visible
19 Nov 4.8 17:09:11 10° ENE 17:09:31 10° ENE 17:09:50 10° NE visible
19 Nov 2.8 18:46:21 51° SSE 18:47:41 82° ENE 18:52:47 10° N visible
19 Nov 6.0 20:26:34 10° W 20:27:17 10° W 20:28:16 10° WNW visible
20 Nov 3.4 18:09:20 28° ESE 18:11:05 37° ENE 18:15:44 10° N visible
20 Nov 5.0 19:49:33 24° WSW 19:50:10 25° W 19:54:19 10° NW visible
21 Nov 6.1 06:17:40 10° ENE 06:19:59 13° E 06:22:17 10° ESE visible
21 Nov 4.3 17:32:18 13° E 17:34:42 18° ENE 17:38:00 10° NNE visible
21 Nov 3.5 19:12:31 51° SW 19:13:15 56° W 19:18:15 10° NNW visible
22 Nov 2.9 18:35:28 52° SE 18:36:31 65° ENE 18:41:33 10° N visible
22 Nov 5.7 20:15:41 14° W 20:15:58 14° W 20:18:33 10° WNW visible
23 Nov 3.7 17:58:25 25° E 17:59:59 30° ENE 18:04:21 10° N visible
23 Nov 4.6 19:38:38 31° WSW 19:38:54 31° W 19:43:25 10° NNW visible
24 Nov 4.5 17:21:20 11° E 17:23:39 14° ENE 17:26:14 10° NNE visible
24 Nov 3.1 18:56:59 10° S 19:02:02 72° WSW 19:07:08 10° NNW visible
25 Nov 3.1 18:24:27 45° ESE 18:25:22 51° ENE 18:30:17 10° N visible
25 Nov 5.5 20:04:39 18° W 20:04:39 18° W 20:08:04 10° NW visible
26 Nov 4.0 17:47:20 21° E 17:48:53 24° ENE 17:52:53 10° NNE visible
26 Nov 4.2 19:22:55 10° SSW 19:27:39 40° W 19:32:26 10° NNW visible
